Temperature
4 4 4 4 5 5 5 5 5 6 6 6 6 6 6 6 6 6 6 6 6 6 7 7 7 7 7 7 7 7 6 6 6 6 6 7 7 7 7 7 7 7 7
4 4 4 4 4 5 5 5 5 5 5 5 5 6 6 5 5 6 6 6 6 6 6 6 6 6 6 6 6 6 6 6 6 5 6 6 6 6 6 6 6 6 6
3 3 3 4 4 4 4 4 4 5 5 5 5 5 5 5 5 5 5 5 5 5 5 5 5 5 6 6 6 5 5 5 5 5 5 5 5 5 5 5 5 5 6
3 3 3 3 3 3 4 4 4 4 4 4 4 4 4 4 4 4 4 4 5 5 5 5 5 5 5 5 5 5 5 4 4 4 4 4 4 4 4 4 4 4 5
3 3 3 3 3 3 3 3 3 3 3 3 3 3 3 3 3 4 4 4 4 4 4 4 4 4 4 4 4 4 4 4 3 3 3 3 3 3 3 3 3 3 4
2 2 2 2 2 3 3 3 3 3 3 3 3 3 3 3 3 3 3 3 3 3 3 3 3 3 3 3 3 3 3 3 3 3 3 2 2 2 2 2 2 2 2
2 1 1 1 2 2 2 2 2 2 2 2 2 2 2 2 2 2 2 2 2 2 2 2 2 2 2 2 2 2 2 2 2 2 2 2 2 2 2 2 2 2 2
1 1 1 1 1 1 1 1 1 1 1 1 1 1 1 1 1 2 2 2 2 2 1 1 2 2 1 1 2 2 2 2 2 2 2 2 2 2 2 2 2 2 1
1 1 1 0 0 0 1 1 1 1 1 1 1 1 1 1 1 1 1 1 1 1 1 1 1 1 1 1 1 1 1 1 1 1 1 1 2 2 2 2 1 1 1
1 1 1 0 0 0 0 0 0 1 0 0 0 0 0 1 1 1 1 1 1 1 1 1 0 0 0 0 0 0 0 0 1 1 1 1 1 1 1 1 1 0 -0
1 1 1 0 0 0 0 0 0 0 0 0 0 0 0 0 0 0 0 0 -0 -0 0 0 0 -0 -0 -0 -0 -0 -0 -0 0 0 0 0 0 1 1 0 0 0 -0
1 0 0 0 0 0 0 -0 -0 -0 -0 -0 -0 -0 -0 -0 -0 -0 -0 -1 -1 -1 -1 -0 -0 -0 -0 -0 -0 -0 -1 -1 -0 -0 -0 -0 -0 -0 -0 0 0 0 0
0 0 0 -0 -0 -0 -0 -0 -1 -1 -1 -1 -1 -1 -1 -1 -1 -1 -1 -1 -1 -1 -1 -1 -1 -0 -0 -0 -1 -1 -1 -1 -1 -1 -1 -1 -1 -1 -1 -0 -0 -0 -0
0 -0 -0 -0 -1 -1 -1 -1 -1 -1 -1 -2 -2 -2 -2 -2 -2 -2 -1 -1 -1 -1 -1 -1 -1 -1 -1 -1 -1 -1 -1 -2 -2 -1 -1 -1 -1 -1 -1 -1 -1 -1 -1
-0 -0 -0 -1 -1 -1 -1 -1 -1 -1 -2 -2 -2 -2 -2 -2 -2 -2 -2 -2 -2 -2 -1 -1 -1 -1 -1 -1 -1 -2 -2 -2 -2 -2 -2 -2 -2 -2 -2 -2 -2 -2 -1
-1 -1 -1 -1 -1 -1 -1 -1 -2 -2 -2 -2 -2 -3 -3 -2 -2 -2 -2 -2 -2 -2 -2 -2 -2 -2 -2 -2 -2 -2 -2 -2 -2 -2 -2 -2 -3 -3 -2 -2 -2 -2 -2
-1 -1 -1 -1 -2 -2 -2 -2 -2 -2 -2 -2 -3 -3 -3 -3 -3 -3 -2 -2 -2 -2 -2 -2 -2 -3 -3 -3 -3 -3 -3 -3 -3 -3 -3 -3 -3 -3 -3 -3 -3 -3 -3
-1 -1 -2 -2 -2 -2 -2 -2 -3 -3 -2 -2 -3 -3 -3 -3 -3 -3 -3 -2 -2 -2 -3 -3 -3 -3 -3 -3 -3 -3 -3 -3 -3 -3 -3 -3 -3 -3 -3 -3 -3 -3 -3
-1 -2 -2 -2 -2 -2 -2 -3 -3 -3 -3 -3 -3 -3 -3 -3 -3 -3 -3 -3 -3 -3 -3 -3 -4 -4 -4 -3 -3 -3 -4 -3 -3 -3 -3 -4 -4 -4 -4 -4 -4 -4 -4
-2 -2 -2 -2 -2 -3 -3 -3 -3 -3 -4 -4 -4 -4 -4 -4 -4 -4 -4 -4 -4 -4 -4 -4 -4 -4 -4 -4 -4 -4 -4 -4 -4 -4 -4 -4 -4 -4 -4 -4 -4 -4 -4
-2 -2 -2 -3 -3 -3 -3 -3 -3 -4 -4 -4 -4 -4 -4 -4 -4 -4 -4 -4 -4 -4 -4 -4 -4 -4 -4 -4 -4 -4 -4 -4 -4 -4 -4 -4 -4 -4 -4 -4 -5 -5 -5
-2 -3 -3 -3 -3 -3 -4 -4 -4 -4 -4 -4 -4 -4 -4 -5 -5 -5 -4 -4 -4 -4 -4 -4 -4 -4 -5 -5 -4 -4 -4 -4 -4 -5 -4 -4 -4 -4 -5 -5 -5 -5 -5
-3 -3 -3 -3 -3 -4 -4 -4 -4 -5 -5 -5 -5 -5 -5 -5 -5 -5 -5 -5 -5 -5 -5 -5 -5 -5 -5 -5 -5 -5 -5 -5 -5 -5 -5 -5 -5 -5 -5 -5 -5 -5 -5
-3 -3 -4 -4 -4 -4 -4 -5 -5 -5 -5 -5 -5 -5 -5 -5 -5 -5 -5 -5 -5 -5 -5 -5 -5 -5 -5 -5 -5 -5 -5 -5 -5 -5 -5 -5 -5 -5 -5 -5 -5 -5 -5
-4 -4 -4 -4 -4 -4 -5 -5 -5 -5 -5 -5 -5 -5 -5 -5 -5 -6 -6 -6 -6 -6 -5 -5 -5 -5 -5 -5 -5 -5 -5 -5 -5 -5 -5 -5 -5 -5 -5 -5 -6 -6 -6
-4 -4 -4 -5 -5 -5 -5 -5 -5 -5 -6 -6 -6 -6 -6 -6 -6 -6 -6 -6 -6 -6 -6 -6 -6 -6 -6 -6 -6 -6 -6 -6 -6 -6 -6 -6 -6 -6 -6 -6 -6 -6 -6
Wind_Speed
5 4 3 3 3 3 3 2 2 2 2 2 2 1 1 1 2 1 2 3 4 4 4 5 6 5 4 4 4 4 5 5 7 6 4 4 5 5 6 7 8 8 9
5 5 4 4 4 4 4 3 3 3 3 3 2 1 1 0 0 1 2 3 4 4 4 4 5 4 4 4 4 5 5 5 6 8 6 4 5 6 6 6 6 7 8
5 5 5 4 4 4 4 4 4 3 3 3 3 2 1 1 1 0 1 1 2 3 3 3 4 4 4 4 4 5 5 5 5 6 7 5 5 5 5 6 6 6 7
6 6 6 4 4 4 4 4 4 4 4 4 3 3 1 1 1 1 1 1 1 2 1 2 2 3 4 4 4 5 5 5 5 5 6 5 5 4 4 5 6 5 6
6 6 6 5 4 4 4 4 4 4 4 4 4 3 2 1 1 1 1 1 1 2 2 2 2 3 4 4 4 4 4 5 5 5 6 5 5 4 5 4 7 6 6
6 6 6 6 5 5 5 4 4 4 4 4 3 3 3 3 3 4 3 2 2 2 3 3 3 3 4 6 6 7 6 6 6 6 6 7 7 6 5 5 5 6 6
6 6 6 6 6 5 6 5 5 5 4 4 3 3 3 3 5 5 5 2 2 3 3 3 4 4 5 5 6 7 7 8 8 7 8 8 7 6 6 6 6 6 7
6 6 6 6 6 5 5 5 4 4 4 3 3 3 3 4 5 5 5 2 3 3 3 4 4 4 5 5 5 5 6 6 7 6 7 8 7 7 7 8 8 6 6
5 6 6 6 5 5 5 5 4 4 4 4 4 4 4 4 6 6 5 2 3 3 4 4 4 5 7 7 5 6 7 7 7 9 10 9 9 8 6 4 4 4 5
5 5 5 5 5 4 4 4 4 4 4 4 4 3 4 4 7 7 6 2 3 3 4 4 5 6 7 7 5 5 7 7 6 7 7 7 6 6 6 5 5 5 5
4 5 5 5 5 4 4 4 4 4 4 4 4 4 4 5 6 8 7 3 3 4 4 4 4 7 8 8 7 5 7 7 6 6 5 5 4 4 5 5 5 5 5
4 4 5 5 5 4 4 4 4 3 4 4 4 5 4 4 5 6 8 7 6 4 5 4 5 8 8 8 6 7 8 7 4 4 4 4 4 4 4 4 4 4 5
3 4 4 5 4 4 4 4 4 3 3 4 4 4 4 4 5 7 8 9 9 5 4 6 7 7 6 5 6 7 6 3 4 4 4 4 4 4 3 3 3 2 3
3 4 4 4 4 4 4 3 3 3 3 4 4 4 5 5 4 5 5 6 7 6 4 5 6 5 4 5 5 4 3 3 4 4 4 4 3 3 2 2 2 2 1
3 3 3 3 4 4 4 4 4 3 4 4 4 4 4 5 7 9 7 5 5 5 5 3 2 3 2 3 3 3 3 3 3 3 4 4 3 3 3 2 2 2 1
3 3 3 3 3 3 4 5 5 5 7 7 6 6 5 7 10 9 9 9 8 7 4 3 3 3 3 3 3 4 4 3 3 3 4 3 3 3 3 2 1 1 1
4 3 3 3 3 3 3 4 5 6 7 7 7 8 7 9 10 9 9 8 6 4 2 3 3 3 3 3 3 3 4 4 3 3 3 3 3 3 2 2 2 1 1
4 4 4 3 3 4 4 4 4 4 5 5 6 8 9 9 9 9 9 6 4 3 2 3 3 3 3 3 3 3 3 3 3 3 3 3 3 2 2 2 2 1 1
4 3 3 3 3 3 4 4 4 4 4 5 5 6 8 8 8 8 7 3 3 3 3 3 3 3 3 3 2 2 2 3 3 3 3 3 3 2 2 2 2 2 2
4 5 4 3 3 3 4 4 4 4 4 4 4 4 4 5 4 5 4 4 3 3 3 3 3 3 4 3 3 2 2 2 2 3 3 2 2 2 2 2 1 1 1
4 4 6 4 4 4 4 4 4 4 4 4 4 5 6 4 4 4 4 4 3 3 3 3 3 3 3 3 3 2 2 2 2 2 2 2 2 2 1 1 1 1 1
4 4 4 4 4 4 4 4 4 4 5 5 5 5 7 4 3 4 4 4 4 3 3 3 3 3 3 3 2 2 2 2 2 2 2 2 2 2 1 1 1 1 1
4 4 4 4 4 6 5 4 4 5 5 5 4 4 4 3 4 4 4 4 3 3 3 3 3 3 3 3 3 2 2 3 3 2 2 2 1 1 1 0 1 1 1
4 5 5 5 4 4 5 5 5 5 5 5 5 4 4 4 4 4 4 3 3 3 3 3 3 4 5 4 4 4 4 4 3 2 2 1 1 1 0 0 0 1 1
5 5 5 5 5 5 5 5 5 5 5 5 4 4 4 4 4 4 4 3 3 3 4 4 4 4 5 5 5 5 5 5 4 3 1 1 1 1 1 1 1 1 1
5 5 5 5 4 4 5 5 5 5 5 5 4 4 4 4 4 4 3 3 3 3 4 4 5 5 6 6 6 6 6 5 4 4 2 0 0 0 1 1 1 1 2
Wind_Direction
2 5 9 4 7 6 360 355 351 350 337 305 274 221 202 261 234 205 241 226 219 226 230 227 231 227 227 231 235 233 239 246 261 276 275 274 268 270 269 262 262 257 254
7 9 14 15 19 17 6 356 0 355 340 343 335 22 14 333 154 189 251 248 235 232 234 234 240 241 233 235 237 240 242 247 253 271 278 269 265 254 257 259 268 265 259
18 18 21 17 15 13 7 360 4 2 6 7 3 22 16 67 69 336 268 269 264 249 244 243 247 239 237 241 242 240 245 260 253 261 271 274 271 257 263 271 268 267 271
15 18 20 16 15 16 13 11 7 9 20 11 3 7 357 79 81 329 307 285 283 295 278 256 257 250 244 248 253 248 248 250 252 256 265 271 267 259 255 267 278 269 270
15 15 11 12 14 19 19 14 7 11 12 7 5 7 6 25 34 349 317 314 285 286 292 282 275 280 278 270 269 264 259 254 258 262 264 270 271 266 260 266 277 283 276
17 11 4 9 15 17 13 10 10 7 3 8 10 5 359 1 8 4 356 316 290 276 279 284 282 274 286 289 284 281 274 262 256 256 264 264 266 267 266 271 275 284 283
11 5 1 6 11 12 11 14 8 1 3 6 1 359 349 353 2 356 346 311 276 269 269 272 283 293 302 276 286 295 284 279 264 250 256 259 259 261 257 260 263 269 278
4 360 358 2 5 6 9 8 359 356 358 355 353 350 343 346 354 349 343 305 277 272 269 268 273 279 287 298 293 286 278 276 271 258 251 253 253 247 241 245 253 269 287
356 352 352 355 355 355 357 354 351 351 350 347 345 348 349 347 358 350 346 292 279 275 274 277 275 270 294 306 295 282 282 283 290 288 281 274 270 268 266 260 262 266 287
343 342 344 345 345 343 343 339 340 345 343 340 344 347 347 346 350 352 347 307 301 297 289 282 289 295 304 308 289 282 282 286 294 291 290 287 272 262 262 239 234 249 273
334 336 337 339 340 340 338 332 335 339 342 344 346 347 350 351 350 350 348 328 307 299 295 291 291 308 308 307 302 282 291 300 289 284 283 287 285 264 247 244 237 233 245
330 329 328 332 335 337 332 331 332 340 347 345 347 346 346 343 343 341 342 337 326 299 292 289 293 308 310 310 303 306 312 310 291 289 287 287 289 284 275 268 261 262 254
318 314 316 325 326 324 327 329 332 341 345 339 337 334 331 331 331 336 334 331 329 315 299 307 310 316 314 304 310 320 319 300 294 291 289 292 292 288 291 304 310 300 302
300 303 312 321 321 323 325 323 326 331 336 332 328 323 320 321 325 330 327 320 322 320 309 311 319 316 308 309 309 305 296 294 303 295 297 294 302 304 297 304 302 307 328
287 295 303 304 306 311 316 315 316 309 311 313 308 307 310 311 316 322 324 317 314 311 320 314 317 313 301 297 296 293 297 307 315 315 310 312 314 310 308 310 295 306 310
279 288 292 293 297 302 309 318 318 308 311 314 313 312 306 312 321 322 321 322 321 324 330 320 316 314 304 305 309 311 311 314 319 319 312 312 309 309 314 321 319 312 308
263 272 282 283 285 288 295 301 310 318 316 313 315 319 322 327 330 331 332 331 332 344 342 322 312 305 308 308 310 311 312 318 323 323 320 319 321 324 325 323 338 342 324
257 259 264 269 275 280 283 288 291 300 311 314 314 318 325 328 332 334 340 344 342 349 339 322 316 314 312 312 309 313 321 326 330 331 328 325 328 334 336 336 345 352 335
252 256 256 263 269 277 281 282 283 287 293 303 314 318 322 327 331 338 349 351 337 333 330 329 326 324 322 320 314 312 317 319 327 328 326 330 330 333 336 339 349 3 19
250 258 261 265 268 274 277 278 281 286 291 295 299 306 319 329 330 332 335 331 326 323 320 317 317 320 321 315 311 312 311 314 322 323 321 324 324 324 330 342 359 12 23
250 255 254 261 258 262 268 273 276 280 284 287 290 296 311 310 305 310 313 317 313 312 314 311 309 309 310 309 300 301 308 311 316 315 315 320 324 325 333 345 4 25 44
243 249 250 253 257 259 264 265 272 277 281 284 291 295 299 305 301 303 304 305 304 305 310 310 304 302 301 303 301 295 294 300 306 313 316 321 327 329 343 5 26 44 65
242 248 255 257 256 263 268 266 267 271 276 280 283 286 289 289 292 295 298 304 309 311 316 316 312 312 312 311 305 287 280 283 288 296 305 305 308 312 337 15 36 75 85
237 243 250 256 258 257 261 265 268 271 275 277 278 279 280 281 285 290 293 298 304 309 313 313 311 311 317 319 310 302 294 294 287 272 273 274 286 281 258 172 53 90 110
235 241 245 249 254 258 263 266 268 271 274 276 276 277 279 281 284 289 293 298 301 305 312 310 304 306 310 311 310 306 315 327 330 319 277 260 262 232 189 177 163 123 112
236 240 244 247 249 254 259 264 267 270 271 273 274 272 274 276 281 287 295 300 304 303 304 303 302 307 309 304 302 310 322 328 340 347 332 252 264 197 166 181 163 151 137
Height
1433 1432 1432 1432 1432 1432 1431 1431 1431 1431 1432 1431 1432 1433 1434 1436 1438 1439 1441 1442 1444 1445 1447 1449 1450 1451 1453 1454 1454 1455 1455 1455 1452 1450 1452 1451 1451 1450 1450 1451 1451 1450 1450
1433 1432 1431 1430 1430 1430 1430 1429 1429 1429 1428 1428 1429 1429 1431 1432 1433 1435 1436 1438 1439 1440 1441 1442 1444 1446 1447 1447 1448 1448 1448 1448 1447 1445 1444 1444 1443 1443 1443 1443 1443 1443 1442
1432 1431 1429 1429 1428 1428 1428 1427 1427 1426 1426 1426 1426 1426 1427 1428 1430 1431 1432 1433 1434 1434 1435 1436 1438 1439 1439 1440 1440 1441 1441 1441 1441 1439 1437 1437 1436 1436 1435 1435 1435 1434 1434
1432 1431 1429 1428 1427 1427 1427 1426 1425 1424 1423 1424 1424 1424 1425 1425 1426 1427 1428 1428 1428 1429 1430 1431 1431 1432 1433 1433 1434 1434 1434 1434 1434 1433 1431 1430 1429 1429 1429 1427 1426 1426 1425
1433 1431 1429 1428 1427 1426 1425 1425 1424 1423 1423 1422 1422 1421 1422 1422 1422 1423 1423 1423 1423 1424 1424 1425 1426 1427 1427 1427 1427 1427 1427 1427 1426 1426 1425 1424 1422 1421 1421 1420 1420 1418 1417
1434 1432 1430 1428 1427 1426 1425 1424 1423 1422 1422 1421 1420 1419 1419 1419 1419 1419 1419 1419 1419 1419 1420 1420 1420 1421 1421 1421 1421 1421 1422 1421 1419 1419 1418 1417 1415 1415 1415 1414 1414 1412 1409
1434 1432 1430 1429 1427 1425 1424 1423 1422 1422 1420 1419 1419 1418 1417 1416 1416 1416 1416 1416 1416 1415 1415 1415 1415 1416 1416 1415 1415 1415 1415 1415 1415 1414 1412 1411 1410 1409 1409 1408 1407 1405 1403
1435 1433 1431 1429 1427 1425 1424 1423 1422 1421 1420 1418 1417 1416 1415 1413 1412 1412 1412 1412 1412 1412 1411 1411 1411 1411 1410 1410 1409 1409 1408 1408 1408 1407 1406 1405 1404 1403 1402 1402 1400 1399 1398
1435 1433 1431 1429 1427 1425 1424 1422 1421 1420 1418 1417 1416 1414 1412 1411 1409 1409 1409 1408 1408 1408 1407 1407 1407 1406 1405 1405 1404 1403 1402 1401 1401 1400 1400 1399 1398 1397 1397 1396 1394 1393 1391
1435 1433 1431 1429 1427 1425 1423 1422 1420 1419 1417 1415 1414 1412 1410 1408 1407 1406 1406 1405 1404 1403 1403 1403 1402 1401 1401 1400 1399 1398 1396 1394 1394 1393 1392 1391 1391 1390 1389 1389 1387 1387 1385
1435 1433 1431 1429 1427 1425 1423 1421 1420 1418 1416 1414 1412 1410 1408 1407 1405 1404 1403 1402 1401 1400 1399 1398 1397 1397 1396 1395 1394 1393 1391 1390 1388 1387 1386 1384 1383 1383 1382 1381 1381 1381 1379
1435 1433 1431 1429 1427 1425 1422 1420 1418 1416 1414 1412 1410 1408 1406 1405 1404 1402 1401 1400 1399 1397 1396 1394 1393 1392 1391 1390 1389 1388 1387 1385 1384 1382 1380 1378 1377 1376 1375 1375 1374 1374 1374
1433 1431 1429 1427 1425 1424 1421 1419 1417 1415 1412 1410 1408 1406 1404 1403 1401 1400 1398 1397 1395 1394 1392 1391 1389 1388 1387 1386 1385 1383 1382 1380 1378 1376 1375 1373 1372 1371 1370 1369 1368 1368 1367
1431 1429 1428 1426 1424 1422 1420 1418 1416 1413 1411 1409 1407 1405 1402 1400 1399 1397 1395 1393 1391 1390 1388 1387 1385 1384 1383 1382 1380 1379 1378 1376 1375 1373 1371 1370 1368 1367 1365 1363 1362 1362 1361
1429 1427 1425 1424 1422 1420 1418 1416 1414 1412 1410 1408 1406 1403 1401 1398 1396 1394 1392 1390 1388 1386 1385 1383 1381 1379 1378 1377 1376 1375 1374 1373 1371 1370 1368 1366 1364 1362 1361 1359 1358 1357 1357
1426 1424 1423 1421 1419 1418 1416 1414 1412 1411 1408 1406 1404 1402 1399 1397 1394 1391 1389 1387 1385 1383 1381 1379 1377 1376 1374 1373 1372 1371 1371 1369 1368 1366 1365 1363 1361 1359 1358 1357 1356 1355 1354
1423 1421 1420 1418 1417 1415 1413 1411 1408 1407 1405 1403 1401 1398 1396 1393 1390 1388 1385 1383 1381 1379 1377 1375 1374 1372 1371 1370 1369 1368 1368 1367 1365 1363 1362 1360 1359 1357 1355 1354 1353 1353 1353
1419 1418 1417 1415 1414 1412 1410 1408 1406 1404 1401 1399 1397 1395 1392 1390 1387 1384 1382 1379 1377 1375 1373 1372 1371 1369 1368 1367 1366 1366 1365 1364 1362 1361 1360 1358 1357 1355 1354 1353 1352 1352 1351
1415 1414 1413 1411 1410 1408 1407 1405 1403 1401 1399 1396 1394 1392 1390 1387 1384 1381 1378 1376 1374 1373 1371 1370 1369 1368 1366 1365 1364 1364 1363 1362 1361 1359 1358 1357 1355 1354 1353 1352 1351 1351 1350
1411 1410 1409 1407 1406 1404 1403 1401 1399 1398 1396 1393 1391 1389 1387 1384 1381 1379 1376 1374 1373 1371 1370 1369 1368 1366 1365 1364 1363 1362 1361 1360 1359 1358 1357 1355 1355 1353 1352 1352 1351 1351 1350
1407 1406 1405 1403 1402 1400 1399 1397 1396 1394 1392 1390 1388 1387 1385 1382 1380 1377 1375 1373 1371 1370 1368 1367 1366 1364 1363 1361 1360 1359 1359 1358 1357 1356 1356 1355 1354 1353 1352 1352 1351 1351 1351
1402 1401 1400 1399 1397 1396 1395 1393 1392 1390 1389 1387 1385 1383 1381 1379 1377 1375 1373 1371 1370 1368 1367 1365 1364 1362 1361 1359 1358 1357 1357 1356 1356 1355 1354 1354 1353 1352 1352 1351 1351 1351 1351
1397 1396 1395 1394 1393 1392 1391 1389 1388 1386 1385 1383 1381 1380 1378 1376 1374 1373 1371 1369 1368 1366 1365 1363 1362 1360 1359 1358 1357 1356 1355 1355 1354 1354 1353 1352 1352 1352 1352 1351 1351 1351 1352
1392 1391 1391 1390 1388 1387 1386 1385 1384 1382 1381 1379 1378 1376 1375 1373 1371 1370 1368 1367 1365 1364 1362 1361 1360 1359 1357 1356 1355 1354 1354 1354 1353 1353 1352 1352 1351 1351 1351 1351 1351 1352 1352
1387 1386 1386 1385 1384 1383 1382 1380 1379 1378 1377 1375 1374 1373 1371 1370 1368 1367 1365 1364 1362 1361 1360 1358 1357 1356 1355 1354 1353 1352 1352 1352 1352 1351 1351 1351 1350 1351 1351 1351 1351 1351 1352
1382 1381 1381 1380 1379 1378 1377 1376 1375 1374 1372 1371 1370 1369 1368 1366 1365 1364 1362 1361 1359 1358 1357 1356 1355 1354 1353 1352 1351 1351 1350 1350 1350 1350 1349 1349 1349 1349 1350 1350 1351 1351 1352